Address 0x00000029ff545c86524ade7caf132527707948c4 10

 
 
Txn Hash Method
Block
From
To
Value [Txn Fee]
0xb88df3772d875c2cb63a25f3ebd50b0992aed00a91f6fb589be7bddec68d477cBuild191408102021-09-15 16:01:00246 days 15 hrs ago0x00000029ff545c86524ade7caf132527707948c4OUT 0xae8fa9af7d17fab84638d1dc794c1bc5fe516baa0 MATIC0.02316235628.000000001
0x1387bf1e293375e873f9ca55e6ec7a79f1a75bdc889a848ae9eebe3d19d2e7afTransfer191297792021-09-15 8:49:14246 days 22 hrs ago0x00000029ff545c86524ade7caf132527707948c4OUT0x66666ad6b459f54a68419363385316abb8a857ff4 MATIC0.0000815853.885000002
0xc92f3ebf81df1276470a4133992e20310a39cb69d8f32d50f6db664244b2550cClaim186957122021-09-03 8:59:06258 days 22 hrs ago0x00000029ff545c86524ade7caf132527707948c4OUT 0x99926d145d79567d2f07007e2095a3c1570e6d5e0 MATIC0.0009398155
0x91f4ef5fad44a972e6cb80905c7d4d95dc9bbcbc7f9e60c7b4a3bcd4360c0613Swap Exact ETH F...141946852021-05-07 8:28:03377 days 22 hrs ago0x00000029ff545c86524ade7caf132527707948c4OUT SushiSwap: Router33 MATIC0.0002197721
0x975dfa4eaeaf79646b33ce56887eb3d2f21b7381af6ba3606e957a6f0fd01653Withdraw138667142021-04-29 6:57:27386 days 4 mins ago0x00000029ff545c86524ade7caf132527707948c4OUT Mapper: USDT Stablecoin0 MATIC0.000023021
0x6662dbb20ce72d44c797a53b8186c3282a4fd440ac35883f452677116736bd0cRedeem138666912021-04-29 6:56:41386 days 5 mins ago0x00000029ff545c86524ade7caf132527707948c4OUT mStable: mStable USD (Polygon PoS) Token0 MATIC0.0003566261
0x49ddebdd975abb2620cf21bd19e70c1ce24dfc788f1613c2f4082d84099df0c6Redeem138666752021-04-29 6:56:05386 days 6 mins ago0x00000029ff545c86524ade7caf132527707948c4OUT mStable: mStable USD (Polygon PoS) Token0 MATIC0.0003716451
0x7c5e0fdc0363d82f3941f1542986c219e3a44da9f00b3da2b6854209218d7a4aRedeem Credits138665432021-04-29 6:51:33386 days 10 mins ago0x00000029ff545c86524ade7caf132527707948c4OUT mStable: imUSD Token0 MATIC0.0001719641
0x97f78adbe7c01f8eee66276c7a9419660b1f8316a112aafe0d19b78a72e90d5dTransfer138224422021-04-28 5:13:42387 days 1 hr ago0x00000029ff545c86524ade7caf132527707948c4OUT0x02f36b70a65ac6a2bea66dd3cfeafa52958d240b0.5 MATIC0.0000211
0x50f23a772ca98c348ac29169d11bee1bacbccb85778d52f9060a183001f5bbd2Deposit Savings137809532021-04-27 4:47:06388 days 2 hrs ago0x00000029ff545c86524ade7caf132527707948c4OUT mStable: imUSD Token0 MATIC0.0001487421
0xc3f22e531fb209b1ea7a1b007d310d1401a4fe2314ab2738c4258b20001f4caeMint137809452021-04-27 4:46:34388 days 2 hrs ago0x00000029ff545c86524ade7caf132527707948c4OUT mStable: mStable USD (Polygon PoS) Token0 MATIC0.0003579931
0xd44da1fd5550ba366f46425209995cd7cd5e6178e69ccd1dcf4c5ea110113995Approve137809422021-04-27 4:46:22388 days 2 hrs ago0x00000029ff545c86524ade7caf132527707948c4OUT mStable: mStable USD (Polygon PoS) Token0 MATIC0.0000472541
0xb7cdbcda4d90fe582a2919af840b359ca413b4d4eb7b091f5c5ff0ba8ff3e042Mint137809372021-04-27 4:46:02388 days 2 hrs ago0x00000029ff545c86524ade7caf132527707948c4OUT mStable: mStable USD (Polygon PoS) Token0 MATIC0.0003880051
0x22239fa56c6f03bcbe9841768a708a6f5b2b7418917097fcaa7979ceaa9dea5eApprove137809292021-04-27 4:45:30388 days 2 hrs ago0x00000029ff545c86524ade7caf132527707948c4OUT USD Coin0 MATIC0.0000492461
0xf9afb2ef97c8f02403d98319634e9870a4521e0a57580fb949470ee0998dc03cWithdraw137807392021-04-27 4:38:54388 days 2 hrs ago0x00000029ff545c86524ade7caf132527707948c4OUT Polygon: WMATIC Token0 MATIC0.0000223511
0x0c3841dda089f3fc18ad2b71938560609130d2dbe37d8c22ddd3efc2fdf7d2a1Withdraw133331792021-04-16 4:52:58399 days 2 hrs ago0x00000029ff545c86524ade7caf132527707948c4OUT Maker: Dai Stablecoin0 MATIC0.000023071
0xf547d46b03e491fe6a639c96c585a78342824abb24c7913aab50512f38067957Swap Exact Token...133331622021-04-16 4:52:24399 days 2 hrs ago0x00000029ff545c86524ade7caf132527707948c4OUT QuickSwap: Router0 MATIC0.0001687111
0x735dcad96e7687b4f6aea5764e496056255d71ef09af4201bc260149a579121cApprove133331552021-04-16 4:52:10399 days 2 hrs ago0x00000029ff545c86524ade7caf132527707948c4OUT Polygon: WMATIC Token0 MATIC0.0000442971
0xf1ec034f89a47724d303a8fa18db3ac2ad0ea8dcd745bc712e7f5cfbdc337106Withdraw133330622021-04-16 4:49:00399 days 2 hrs ago0x00000029ff545c86524ade7caf132527707948c4OUT Aave: Lending Pool V20 MATIC0.000241651
0x739b9aa0a2ab0183f9c6e82f0fa964505157c6825529d2652430cff8bb237b66Repay133330522021-04-16 4:48:36399 days 2 hrs ago0x00000029ff545c86524ade7caf132527707948c4OUT Aave: Lending Pool V20 MATIC0.0002887081
0xfd03f97a8f2e80c600e2907ccfb2914c546cb194d7037b46977adac546b6735fSwap Exact ETH F...133330422021-04-16 4:48:16399 days 2 hrs ago0x00000029ff545c86524ade7caf132527707948c4OUT QuickSwap: Router5,177.710190763633809 MATIC0.0001751311
0x82adaa621ac94cf8c8ecff743c61009c8fa04a0f10f29b05c8c99ec59cab3ea5Withdraw133330292021-04-16 4:47:50399 days 2 hrs ago0x00000029ff545c86524ade7caf132527707948c4OUT Aave: Lending Pool V20 MATIC0.0003367081
0x807b38dc21000978b9c6db8e7ab518f7a049adba1a9a5579a957a34578b6e5d9Withdraw133330152021-04-16 4:47:22399 days 2 hrs ago0x00000029ff545c86524ade7caf132527707948c4OUT Aave: Lending Pool V20 MATIC0.000336721
0xa476cc5326e2a561ae1eb67fe88fd017fd57c0f34dccc3c65f5154c682883508Swap ETH For Exa...133330002021-04-16 4:46:52399 days 2 hrs ago0x00000029ff545c86524ade7caf132527707948c4OUT QuickSwap: Router2.302877387725692 MATIC0.0001369211
0x4d7bc653297e610c9b0c5d40865f2d625d82172cabf3a6d0bfe4c706fa93546dRepay133329922021-04-16 4:46:36399 days 2 hrs ago0x00000029ff545c86524ade7caf132527707948c4OUT Aave: Lending Pool V20 MATIC0.0002814341
[ Download CSV Export 
Latest 6 internal transactions
Parent Txn Hash Block From To Value
0xf9afb2ef97c8f02403d98319634e9870a4521e0a57580fb949470ee0998dc03c137807392021-04-27 4:38:54388 days 2 hrs ago Polygon: WMATIC Token0x00000029ff545c86524ade7caf132527707948c430 MATIC
0xa476cc5326e2a561ae1eb67fe88fd017fd57c0f34dccc3c65f5154c682883508133330002021-04-16 4:46:52399 days 2 hrs ago QuickSwap: Router0x00000029ff545c86524ade7caf132527707948c40.011457101431471108 MATIC
0xc1b59ff05d7678978ab5c1b1568dd7ba285c3f39b92b072f1db60d368228a984133329542021-04-16 4:45:14399 days 2 hrs ago QuickSwap: Router0x00000029ff545c86524ade7caf132527707948c40.021161742610998362 MATIC
0x254c679d676ea24f8242f6aff6d4689de09ef39d6cb48b93da632bc7b9f45f04133329282021-04-16 4:44:22399 days 2 hrs ago QuickSwap: Router0x00000029ff545c86524ade7caf132527707948c41.419387865788578641 MATIC
0x038e11b349c711a4a1007beb7a4de4fb2e18729e18c890672bca0bb8b290de42133329222021-04-16 4:44:06399 days 2 hrs ago QuickSwap: Router0x00000029ff545c86524ade7caf132527707948c40.050764958666881374 MATIC
0x14d41fb78b63e20815150dfa021637633c36dcd5b7f580a42f97f48894cfb606133026302021-04-15 11:04:15399 days 19 hrs ago Polygon: WMATIC Token0x00000029ff545c86524ade7caf132527707948c45,488.575772325750497287 MATIC
[ Download CSV Export 
Loading

Contract Name:
0 MATIC

Compiler Version
0

Optimization Enabled:
0 MATIC

Other Settings:
-NA-
Block Transaction Gas Used Reward
Age Block Fee Address BC Fee Address Voting Power Jailed Incoming
Block Uncle Number Difficulty Gas Used Reward
Loading
Loading
Make sure to use the "Vote Down" button for any spammy posts, and the "Vote Up" for interesting conversations.